• In Lithuania
  • List of Countries
  • For 7 days
  • Water Temperature
  • Satellite Maps
  • Weather Map
  • Weather Widgets
  • user-avatar
    Login

    Hourly Weather Malye Yagury

    Today, 15 August, Wednesday

    Time Temperature Precipitation Wind Pressure Humidity
    00:00 +26°C° 0 mm 2 mps 747 mmHg 43%
    01:00 +25°C° 0 mm 2 mps 747 mmHg 45%
    02:00 +24°C° 0 mm 1 mps 746 mmHg 47%
    03:00 +24°C° 0 mm 1 mps 746 mmHg 49%
    04:00 +24°C° 0 mm 1 mps 747 mmHg 50%
    05:00 +24°C° 0 mm 1 mps 747 mmHg 51%
    06:00 +24°C° 0 mm 1 mps 747 mmHg 51%
    07:00 +26°C° 0 mm 1 mps 747 mmHg 45%
    08:00 +29°C° 0 mm 2 mps 747 mmHg 40%
    09:00 +31°C° 0 mm 2 mps 747 mmHg 34%
    10:00 +33°C° 0 mm 3 mps 747 mmHg 31%
    11:00 +34°C° 0 mm 4 mps 747 mmHg 29%
    12:00 +35°C° 0 mm 5 mps 747 mmHg 26%
    13:00 +36°C° 0 mm 5 mps 747 mmHg 26%
    14:00 +36°C° 0 mm 5 mps 746 mmHg 26%
    15:00 +36°C° 0 mm 5 mps 746 mmHg 26%
    16:00 +35°C° 0 mm 5 mps 746 mmHg 28%
    17:00 +35°C° 0 mm 4 mps 746 mmHg 29%
    18:00 +34°C° 0 mm 4 mps 746 mmHg 31%
    19:00 +32°C° 0 mm 4 mps 746 mmHg 33%
    20:00 +30°C° 0 mm 3 mps 746 mmHg 36%
    21:00 +28°C° 0 mm 3 mps 747 mmHg 38%
    22:00 +27°C° 0 mm 3 mps 747 mmHg 40%
    23:00 +26°C° 0 mm 3 mps 747 mmHg 42%

    Tomorrow, 16 August, Thursday

    Time Temperature Precipitation Wind Pressure Humidity
    00:00 +26°C° 0 mm 4 mps 747 mmHg 44%
    01:00 +25°C° 0 mm 3 mps 747 mmHg 48%
    02:00 +24°C° 0 mm 3 mps 746 mmHg 51%
    03:00 +23°C° 0 mm 2 mps 746 mmHg 55%
    04:00 +22°C° 0 mm 3 mps 746 mmHg 56%
    05:00 +22°C° 0 mm 3 mps 746 mmHg 58%
    06:00 +22°C° 0 mm 3 mps 746 mmHg 59%
    07:00 +25°C° 0 mm 4 mps 746 mmHg 53%
    08:00 +27°C° 0 mm 5 mps 747 mmHg 47%
    09:00 +29°C° 0 mm 7 mps 747 mmHg 41%
    10:00 +32°C° 0 mm 7 mps 746 mmHg 38%
    11:00 +33°C° 0 mm 7 mps 746 mmHg 35%
    12:00 +34°C° 0 mm 7 mps 746 mmHg 32%
    13:00 +34°C° 0 mm 7 mps 746 mmHg 31%
    14:00 +35°C° 0 mm 7 mps 745 mmHg 29%
    15:00 +35°C° 0 mm 7 mps 745 mmHg 28%
    16:00 +35°C° 0 mm 6 mps 745 mmHg 29%
    17:00 +34°C° 0 mm 5 mps 744 mmHg 31%
    18:00 +34°C° 0 mm 5 mps 744 mmHg 32%
    19:00 +32°C° 0 mm 5 mps 745 mmHg 34%
    20:00 +30°C° 0 mm 5 mps 745 mmHg 35%
    21:00 +29°C° 0 mm 5 mps 745 mmHg 37%
    22:00 +28°C° 0 mm 5 mps 745 mmHg 40%
    23:00 +27°C° 0 mm 5 mps 745 mmHg 44%

    Day after tomorrow, 17 August, Friday

    Time Temperature Precipitation Wind Pressure Humidity
    00:00 +26°C° 0 mm 4 mps 745 mmHg 48%
    01:00 +26°C° 0 mm 4 mps 745 mmHg 50%
    02:00 +25°C° 0 mm 4 mps 745 mmHg 53%
    03:00 +23°C° 0 mm 4 mps 745 mmHg 55%
    04:00 +24°C° 0 mm 3 mps 745 mmHg 56%
    05:00 +24°C° 0 mm 3 mps 745 mmHg 57%
    06:00 +22°C° 0 mm 3 mps 745 mmHg 58%
    07:00 +25°C° 0 mm 3 mps 745 mmHg 52%
    08:00 +27°C° 0 mm 4 mps 745 mmHg 46%
    09:00 +30°C° 0 mm 4 mps 745 mmHg 41%
    10:00 +32°C° 0 mm 5 mps 745 mmHg 37%
    11:00 +34°C° 0 mm 5 mps 744 mmHg 33%
    12:00 +35°C° 0 mm 5 mps 744 mmHg 30%
    13:00 +36°C° 0 mm 5 mps 744 mmHg 29%
    14:00 +36°C° 0 mm 5 mps 743 mmHg 28%
    15:00 +37°C° 0 mm 5 mps 743 mmHg 27%
    16:00 +36°C° 0 mm 4 mps 743 mmHg 28%
    17:00 +36°C° 0 mm 4 mps 743 mmHg 29%
    18:00 +36°C° 0 mm 3 mps 743 mmHg 31%
    19:00 +34°C° 0.1 mm 3 mps 743 mmHg 33%
    20:00 +31°C° 0.1 mm 3 mps 743 mmHg 35%
    21:00 +29°C° 0.1 mm 3 mps 743 mmHg 38%
    22:00 +29°C° 0.2 mm 3 mps 743 mmHg 39%
    23:00 +28°C° 0.2 mm 3 mps 743 mmHg 41%

    18 August, Saturday

    Time Temperature Precipitation Wind Pressure Humidity
    00:00 +28°C° 0.2 mm 3 mps 743 mmHg 42%
    01:00 +27°C° 0.3 mm 3 mps 743 mmHg 47%
    02:00 +27°C° 0.3 mm 3 mps 743 mmHg 52%
    03:00 +26°C° 0.3 mm 3 mps 743 mmHg 57%
    04:00 +26°C° 0.2 mm 3 mps 743 mmHg 59%
    05:00 +25°C° 0.2 mm 3 mps 743 mmHg 60%
    06:00 +25°C° 0.2 mm 2 mps 744 mmHg 62%
    07:00 +26°C° 0.2 mm 3 mps 744 mmHg 58%
    08:00 +28°C° 0.2 mm 3 mps 744 mmHg 54%
    09:00 +29°C° 0.2 mm 4 mps 744 mmHg 50%
    10:00 +30°C° 0 mm 4 mps 744 mmHg 44%
    11:00 +33°C° 0 mm 5 mps 744 mmHg 38%
    12:00 +34°C° 0 mm 5 mps 744 mmHg 31%
    13:00 +35°C° 0 mm 5 mps 744 mmHg 29%
    14:00 +35°C° 0 mm 5 mps 744 mmHg 26%
    15:00 +36°C° 0 mm 5 mps 744 mmHg 24%
    16:00 +35°C° 0 mm 4 mps 744 mmHg 24%
    17:00 +35°C° 0 mm 3 mps 744 mmHg 25%
    18:00 +34°C° 0 mm 3 mps 744 mmHg 26%
    19:00 +31°C° 0 mm 3 mps 744 mmHg 28%
    20:00 +30°C° 0 mm 2 mps 745 mmHg 29%
    21:00 +28°C° 0 mm 2 mps 745 mmHg 31%
    22:00 +28°C° 0 mm 3 mps 745 mmHg 33%
    23:00 +27°C° 0 mm 4 mps 745 mmHg 34%

    19 August, Sunday

    Time Temperature Precipitation Wind Pressure Humidity
    00:00 +27°C° 0 mm 4 mps 745 mmHg 36%
    01:00 +26°C° 0 mm 5 mps 745 mmHg 39%
    02:00 +26°C° 0 mm 5 mps 745 mmHg 41%
    03:00 +26°C° 0 mm 5 mps 745 mmHg 43%
    04:00 +25°C° 0 mm 5 mps 745 mmHg 45%
    05:00 +25°C° 0 mm 5 mps 746 mmHg 47%
    06:00 +23°C° 0 mm 5 mps 746 mmHg 49%
    07:00 +26°C° 0 mm 5 mps 746 mmHg 45%
    08:00 +27°C° 0 mm 6 mps 746 mmHg 42%
    09:00 +28°C° 0 mm 6 mps 747 mmHg 38%
    10:00 +29°C° 0 mm 6 mps 746 mmHg 36%
    11:00 +32°C° 0 mm 6 mps 746 mmHg 34%
    12:00 +33°C° 0 mm 6 mps 746 mmHg 32%
    13:00 +33°C° 0 mm 6 mps 746 mmHg 31%
    14:00 +33°C° 0 mm 6 mps 746 mmHg 30%
    15:00 +33°C° 0 mm 6 mps 745 mmHg 29%
    16:00 +33°C° 0 mm 6 mps 745 mmHg 29%
    17:00 +32°C° 0 mm 5 mps 746 mmHg 29%
    18:00 +30°C° 0 mm 5 mps 746 mmHg 30%
    19:00 +29°C° 0 mm 5 mps 746 mmHg 29%
    20:00 +27°C° 0 mm 5 mps 746 mmHg 27%
    21:00 +26°C° 0 mm 5 mps 746 mmHg 26%
    22:00 +25°C° 0 mm 5 mps 746 mmHg 27%
    23:00 +23°C° 0 mm 5 mps 746 mmHg 27%

    20 August, Monday

    Time Temperature Precipitation Wind Pressure Humidity
    00:00 +23°C° 0 mm 5 mps 746 mmHg 28%
    01:00 +22°C° 0 mm 5 mps 746 mmHg 29%
    02:00 +21°C° 0 mm 5 mps 746 mmHg 31%
    03:00 +21°C° 0 mm 5 mps 746 mmHg 33%
    04:00 +20°C° 0 mm 5 mps 746 mmHg 35%
    05:00 +20°C° 0 mm 4 mps 747 mmHg 37%
    06:00 +19°C° 0 mm 4 mps 747 mmHg 40%
    07:00 +21°C° 0 mm 5 mps 747 mmHg 38%
    08:00 +23°C° 0 mm 5 mps 747 mmHg 36%
    09:00 +24°C° 0 mm 6 mps 747 mmHg 34%
    10:00 +26°C° 0 mm 5 mps 747 mmHg 31%
    11:00 +28°C° 0 mm 5 mps 747 mmHg 28%
    12:00 +29°C° 0 mm 5 mps 747 mmHg 25%
    13:00 +29°C° 0 mm 5 mps 747 mmHg 23%
    14:00 +30°C° 0 mm 5 mps 746 mmHg 22%
    15:00 +30°C° 0 mm 5 mps 746 mmHg 20%
    16:00 +29°C° 0 mm 5 mps 746 mmHg 21%
    17:00 +29°C° 0 mm 4 mps 746 mmHg 22%
    18:00 +28°C° 0 mm 4 mps 746 mmHg 23%
    19:00 +27°C° 0 mm 3 mps 747 mmHg 24%
    20:00 +25°C° 0 mm 3 mps 747 mmHg 25%
    21:00 +22°C° 0 mm 3 mps 747 mmHg 26%
    22:00 +22°C° 0 mm 3 mps 747 mmHg 27%
    23:00 +21°C° 0 mm 3 mps 747 mmHg 29%
    Show more